Location: Newark
(36.2667°N, 50.0000°E)
Time: 21:41:11
(UTC+00:00)

Hubble Space Telescope - Pass Details

Date: 01 October 2020
Orbit: 536 x 540 km, 28.5° (Epoch: 26 October)

Event Time Altitude Azimuth Distance (km) Brightness Sun altitude
Exits shadow 02:04:10 - 248° (WSW) 2,002 3.1 -7.1°
Reaches altitude 10° 02:04:52 10° 242° (WSW) 1,778 2.9 -7.0°
Maximum altitude 02:08:05 22° 191° (S) 1,189 2.4 -6.3°
Drops below altitude 10° 02:11:17 10° 139° (SE) 1,774 4.0 -5.7°
Sets 02:13:54 0° 124° (SE) 2,663 5.4 -5.1°
